TimeEDT,TemperatureF,Dew PointF,Humidity,Sea Level PressureIn,VisibilityMPH,Wind Direction,Wind SpeedMPH,Gust SpeedMPH,PrecipitationIn,Events,Conditions,WindDirDegrees,DateUTC
12:51 AM,69.1,66.0,90,29.90,10.0,SW,6.9,-,N/A,,Mostly Cloudy,230,2013-06-18 04:51:00
1:51 AM,68.0,64.9,90,29.90,9.0,WSW,3.5,-,N/A,,Mostly Cloudy,250,2013-06-18 05:51:00
2:51 AM,66.9,64.0,90,29.88,10.0,South,4.6,-,N/A,,Scattered Clouds,180,2013-06-18 06:51:00
3:51 AM,66.9,64.0,90,29.88,10.0,North,3.5,-,N/A,,Mostly Cloudy,360,2013-06-18 07:51:00
4:51 AM,66.9,64.0,90,29.88,9.0,NE,3.5,-,N/A,,Mostly Cloudy,50,2013-06-18 08:51:00
5:51 AM,66.0,64.0,93,29.89,6.0,NE,5.8,-,N/A,,Mostly Cloudy,50,2013-06-18 09:51:00
6:51 AM,68.0,66.0,93,29.91,5.0,NE,3.5,-,N/A,,Mostly Cloudy,40,2013-06-18 10:51:00
7:16 AM,68.0,66.2,94,29.91,5.0,Calm,Calm,-,N/A,,Mostly Cloudy,0,2013-06-18 11:16:00
7:51 AM,69.1,64.9,87,29.90,5.0,East,3.5,-,N/A,,Mostly Cloudy,100,2013-06-18 11:51:00
8:51 AM,73.0,66.0,79,29.91,6.0,SE,3.5,-,N/A,,Haze,130,2013-06-18 12:51:00
9:51 AM,75.0,66.9,76,29.90,7.0,SE,3.5,-,N/A,,Mostly Cloudy,140,2013-06-18 13:51:00
10:51 AM,75.9,64.9,69,29.89,9.0,SSE,5.8,-,N/A,,Mostly Cloudy,160,2013-06-18 14:51:00
11:51 AM,75.0,66.0,73,29.89,10.0,South,5.8,-,N/A,,Mostly Cloudy,180,2013-06-18 15:51:00
12:51 PM,77.0,66.2,69,29.87,10.0,South,8.1,-,N/A,,Mostly Cloudy,190,2013-06-18 16:51:00
1:51 PM,73.9,64.0,71,29.86,10.0,South,8.1,-,N/A,,Overcast,170,2013-06-18 17:51:00
2:51 PM,73.0,64.0,73,29.85,10.0,SSE,4.6,-,N/A,,Overcast,150,2013-06-18 18:51:00
3:29 PM,73.4,64.4,73,29.84,10.0,SE,4.6,-,N/A,,Overcast,130,2013-06-18 19:29:00
3:51 PM,72.0,66.0,81,29.86,9.0,South,8.1,-,N/A,,Overcast,180,2013-06-18 19:51:00
4:48 PM,66.2,62.6,88,29.85,10.0,WSW,10.4,-,0.07,Rain,Light Rain,240,2013-06-18 20:48:00
4:51 PM,66.9,63.0,87,29.85,9.0,WSW,10.4,-,0.07,Rain,Light Rain,240,2013-06-18 20:51:00
5:51 PM,68.0,64.0,87,29.86,8.0,NW,4.6,-,0.03,Rain,Light Rain,320,2013-06-18 21:51:00
6:51 PM,69.1,64.9,87,29.87,7.0,NNW,5.8,-,0.04,Rain,Light Rain,340,2013-06-18 22:51:00
7:51 PM,69.1,62.1,78,29.84,10.0,ESE,4.6,-,0.05,Rain,Light Rain,120,2013-06-18 23:51:00
8:51 PM,68.0,63.0,84,29.84,10.0,NE,8.1,-,0.01,Rain,Light Rain,50,2013-06-19 00:51:00
8:58 PM,68.0,64.4,88,29.84,10.0,North,10.4,-,0.00,,Mostly Cloudy,10,2013-06-19 00:58:00
9:29 PM,68.0,64.4,88,29.85,8.0,ENE,5.8,-,0.00,,Overcast,60,2013-06-19 01:29:00
9:51 PM,66.9,64.0,90,29.86,9.0,North,13.8,-,0.00,Rain,Light Rain,360,2013-06-19 01:51:00
10:27 PM,66.2,64.4,94,29.87,10.0,NE,11.5,-,0.00,,Overcast,40,2013-06-19 02:27:00
10:51 PM,66.0,63.0,90,29.87,10.0,NNE,10.4,-,0.00,,Overcast,30,2013-06-19 02:51:00
11:51 PM,66.0,63.0,90,29.88,10.0,NNE,10.4,-,N/A,,Scattered Clouds,20,2013-06-19 03:51:00